Time,TemperatureF,DewpointF,PressureIn,WindDirection,WindDirectionDegrees,WindSpeedMPH,WindSpeedGustMPH,Humidity,HourlyPrecipIn,Conditions,Clouds,dailyrainin,SoftwareType,DateUTC
2015-07-06 00:01:00,55.9,53.0,29.97,SW,217,4.0,7.0,90,0.00,,,0.00,weatherlink.com 1.10,2015-07-05 23:01:00,
2015-07-06 00:16:00,55.9,53.0,29.97,SW,233,5.0,10.0,91,0.00,,,0.00,weatherlink.com 1.10,2015-07-05 23:16:00,
2015-07-06 00:31:00,56.1,54.0,29.97,SW,225,9.0,12.0,92,0.00,,,0.00,weatherlink.com 1.10,2015-07-05 23:31:00,
2015-07-06 00:46:00,56.4,54.0,29.97,SW,236,7.0,13.0,91,0.00,,,0.00,weatherlink.com 1.10,2015-07-05 23:46:00,
2015-07-06 01:01:00,56.0,54.0,29.97,SW,229,4.0,7.0,91,0.00,,,0.00,weatherlink.com 1.10,2015-07-06 00:01:00,
2015-07-06 01:16:00,55.7,54.0,29.97,SW,223,4.0,7.0,92,0.00,,,0.00,weatherlink.com 1.10,2015-07-06 00:16:00,
2015-07-06 01:31:00,55.6,54.0,29.97,WSW,238,7.0,11.0,93,0.00,,,0.00,weatherlink.com 1.10,2015-07-06 00:31:00,
2015-07-06 01:46:00,55.5,54.0,29.97,SW,226,5.0,11.0,93,0.00,,,0.00,weatherlink.com 1.10,2015-07-06 00:46:00,
2015-07-06 02:01:00,55.5,54.0,29.97,WSW,243,7.0,11.0,93,0.00,,,0.00,weatherlink.com 1.10,2015-07-06 01:01:00,
2015-07-06 02:16:00,56.2,54.0,29.98,SW,236,9.0,13.0,93,0.00,,,0.00,weatherlink.com 1.10,2015-07-06 01:16:00,
2015-07-06 02:32:00,56.1,54.0,29.98,SW,233,7.0,15.0,92,0.00,,,0.00,weatherlink.com 1.10,2015-07-06 01:32:00,
2015-07-06 02:47:00,55.8,54.0,29.98,WSW,243,6.0,13.0,93,0.00,,,0.00,weatherlink.com 1.10,2015-07-06 01:47:00,
2015-07-06 03:02:00,55.5,54.0,29.98,SW,233,5.0,10.0,93,0.00,,,0.00,weatherlink.com 1.10,2015-07-06 02:02:00,
2015-07-06 03:17:00,55.1,53.0,29.98,WSW,250,7.0,9.0,93,0.00,,,0.00,weatherlink.com 1.10,2015-07-06 02:17:00,
2015-07-06 03:32:00,55.0,53.0,29.98,SW,219,6.0,9.0,94,0.00,,,0.00,weatherlink.com 1.10,2015-07-06 02:32:00,
2015-07-06 03:47:00,54.5,53.0,29.98,SSW,203,4.0,7.0,93,0.00,,,0.00,weatherlink.com 1.10,2015-07-06 02:47:00,
2015-07-06 04:02:00,54.4,53.0,29.98,South,169,4.0,9.0,94,0.00,,,0.00,weatherlink.com 1.10,2015-07-06 03:02:00,
2015-07-06 04:17:00,54.5,53.0,29.99,SE,141,4.0,6.0,94,0.00,,,0.00,weatherlink.com 1.10,2015-07-06 03:17:00,
2015-07-06 04:32:00,54.3,53.0,29.98,ESE,122,4.0,6.0,94,0.00,,,0.00,weatherlink.com 1.10,2015-07-06 03:32:00,
2015-07-06 04:47:00,53.7,52.0,29.99,SE,126,5.0,6.0,94,0.00,,,0.00,weatherlink.com 1.10,2015-07-06 03:47:00,
2015-07-06 05:02:00,53.1,52.0,29.98,ESE,119,5.0,6.0,94,0.00,,,0.00,weatherlink.com 1.10,2015-07-06 04:02:00,
2015-07-06 05:17:00,53.5,52.0,29.99,SE,146,4.0,6.0,95,0.00,,,0.00,weatherlink.com 1.10,2015-07-06 04:17:00,
2015-07-06 05:32:00,53.9,53.0,30.00,South,171,6.0,7.0,95,0.00,,,0.00,weatherlink.com 1.10,2015-07-06 04:32:00,
2015-07-06 05:47:00,54.3,53.0,30.00,SSE,155,5.0,8.0,94,0.00,,,0.00,weatherlink.com 1.10,2015-07-06 04:47:00,
2015-07-06 06:02:00,53.9,52.0,30.00,SSE,153,5.0,9.0,94,0.00,,,0.00,weatherlink.com 1.10,2015-07-06 05:02:00,
2015-07-06 06:17:00,54.0,52.0,30.00,SE,137,4.0,7.0,94,0.00,,,0.00,weatherlink.com 1.10,2015-07-06 05:17:00,
2015-07-06 06:47:00,54.8,53.0,30.00,SE,146,7.0,10.0,93,0.00,,,0.00,weatherlink.com 1.10,2015-07-06 05:47:00,
2015-07-06 07:02:00,55.4,53.0,30.01,SE,146,8.0,11.0,91,0.00,,,0.00,weatherlink.com 1.10,2015-07-06 06:02:00,
2015-07-06 07:17:00,55.9,53.0,30.02,SE,142,9.0,12.0,91,0.00,,,0.00,weatherlink.com 1.10,2015-07-06 06:17:00,
2015-07-06 07:32:00,55.9,53.0,30.01,SSE,148,8.0,11.0,90,0.00,,,0.00,weatherlink.com 1.10,2015-07-06 06:32:00,
2015-07-06 07:47:00,56.7,54.0,30.00,SSE,155,8.0,12.0,89,0.00,,,0.00,weatherlink.com 1.10,2015-07-06 06:47:00,
2015-07-06 08:02:00,56.8,53.0,30.01,SSE,148,5.0,11.0,88,0.00,,,0.00,weatherlink.com 1.10,2015-07-06 07:02:00,
2015-07-06 08:17:00,57.1,53.0,30.00,SE,144,10.0,10.0,86,0.00,,,0.00,weatherlink.com 1.10,2015-07-06 07:17:00,
2015-07-06 08:32:00,57.7,54.0,30.01,SE,144,6.0,11.0,87,0.00,,,0.00,weatherlink.com 1.10,2015-07-06 07:32:00,
2015-07-06 08:47:00,58.4,54.0,30.01,SSE,164,7.0,12.0,86,0.00,,,0.00,weatherlink.com 1.10,2015-07-06 07:47:00,
2015-07-06 09:02:00,58.2,54.0,30.00,SSE,149,7.0,12.0,85,0.00,,,0.00,weatherlink.com 1.10,2015-07-06 08:02:00,
2015-07-06 09:17:00,58.8,54.0,30.00,SE,140,7.0,13.0,85,0.00,,,0.00,weatherlink.com 1.10,2015-07-06 08:17:00,
2015-07-06 09:32:00,59.9,55.0,30.00,South,191,9.0,9.0,84,0.00,,,0.00,weatherlink.com 1.10,2015-07-06 08:32:00,
2015-07-06 09:47:00,60.2,54.0,30.00,SSE,158,8.0,13.0,81,0.00,,,0.00,weatherlink.com 1.10,2015-07-06 08:47:00,
2015-07-06 10:03:00,60.6,54.0,30.00,South,172,11.0,12.0,79,0.00,,,0.00,weatherlink.com 1.10,2015-07-06 09:03:00,
2015-07-06 10:18:00,60.4,54.0,30.01,SW,224,11.0,13.0,79,0.00,,,0.00,weatherlink.com 1.10,2015-07-06 09:18:00,
2015-07-06 10:33:00,60.5,54.0,30.01,SW,218,13.0,16.0,78,0.00,,,0.00,weatherlink.com 1.10,2015-07-06 09:33:00,
2015-07-06 10:48:00,61.1,54.0,30.00,South,185,13.0,14.0,77,0.00,,,0.00,weatherlink.com 1.10,2015-07-06 09:48:00,
2015-07-06 11:03:00,61.3,54.0,29.99,South,184,8.0,11.0,76,0.00,,,0.00,weatherlink.com 1.10,2015-07-06 10:03:00,
2015-07-06 11:18:00,60.9,53.0,29.99,SSE,153,10.0,13.0,76,0.00,,,0.00,weatherlink.com 1.10,2015-07-06 10:18:00,
2015-07-06 11:33:00,61.2,54.0,29.99,SSE,160,11.0,12.0,77,0.00,,,0.00,weatherlink.com 1.10,2015-07-06 10:33:00,
2015-07-06 11:48:00,61.7,55.0,29.98,SE,131,8.0,15.0,78,0.00,,,0.00,weatherlink.com 1.10,2015-07-06 10:48:00,
2015-07-06 12:03:00,61.5,54.0,29.97,South,183,12.0,19.0,77,0.00,,,0.00,weatherlink.com 1.10,2015-07-06 11:03:00,